sat.trackr.live / text

‹ back to catalog

GAOFEN-14 01

NORAD 47231 · 2020-092A

PAYLOAD ACTIVE UNKNOWN

§ Identity

Operator
Country
PRC
Launch date
2020-12-06
Launch site
XICLF
Launch vehicle
Mass (kg)
RCS (m²)

External: N2YO · Heavens-Above · Gunter

§ Orbital elements

Epoch: 2026-09-20T04:24:44.455104Z

Period
94.38 min
Inclination
97.4642°
Eccentricity
0.0005863
Mean motion
15.25793771 rev/d
Perigee alt
484.4 km
Apogee alt
492.4 km
Semi-major
6,866.5 km
B*
1.4456e-4
RAAN
333.2756°
Arg perigee
162.9629°
Mean anomaly
197.1807°
Rev number
32,231

§ Raw data

GAOFEN-14 011 47231U 20092A   26263.18384786  .00003621  00000+0  14456-3 0  99982 47231  97.4642 333.2756 0005863 162.9629 197.1807 15.25793771322318

JSON: /api/v1/satellites/47231 · /tle

For live sub-satellite position, see the globe view (requires WebGL).

§ Visibility from observer

Set your observer location to see the next 7 days of passes ≥ 10°. The values pass through the URL so the page stays shareable.

No JS? Fill the form by hand. The geolocation button needs JavaScript.